TimeEST,TemperatureF,Dew PointF,Humidity,Sea Level PressureIn,VisibilityMPH,Wind Direction,Wind SpeedMPH,Gust SpeedMPH,PrecipitationIn,Events,Conditions,WindDirDegrees,DateUTC
12:55 AM,43.3,28.9,57,30.22,10.0,NNW,11.5,-,N/A,,Clear,340,2013-03-09 05:55:00
1:55 AM,39.4,30.2,70,30.23,10.0,NW,8.1,-,N/A,,Clear,320,2013-03-09 06:55:00
2:55 AM,38.5,29.7,71,30.22,10.0,NW,10.4,-,N/A,,Clear,320,2013-03-09 07:55:00
3:55 AM,39.6,28.9,66,30.22,10.0,NW,11.5,-,N/A,,Clear,320,2013-03-09 08:55:00
4:55 AM,38.7,28.8,68,30.24,10.0,NW,9.2,-,N/A,,Clear,320,2013-03-09 09:55:00
5:55 AM,38.1,28.2,68,30.25,10.0,NNW,13.8,-,N/A,,Clear,330,2013-03-09 10:55:00
6:55 AM,38.1,27.5,66,30.27,10.0,NNW,13.8,-,N/A,,Clear,340,2013-03-09 11:55:00
7:55 AM,40.6,27.7,60,30.29,10.0,North,10.4,-,N/A,,Clear,350,2013-03-09 12:55:00
8:55 AM,43.2,26.6,52,30.30,10.0,NNW,16.1,-,N/A,,Clear,340,2013-03-09 13:55:00
9:55 AM,45.5,26.2,47,30.32,10.0,NNW,12.7,-,N/A,,Clear,340,2013-03-09 14:55:00
10:55 AM,48.7,26.1,41,30.32,10.0,North,12.7,-,N/A,,Clear,350,2013-03-09 15:55:00
11:55 AM,51.4,25.2,36,30.30,10.0,NNW,11.5,-,N/A,,Clear,340,2013-03-09 16:55:00
12:55 PM,54.3,25.7,33,30.29,10.0,NE,6.9,-,N/A,,Clear,40,2013-03-09 17:55:00
1:55 PM,53.4,34.5,49,30.27,10.0,ENE,10.4,-,N/A,,Clear,70,2013-03-09 18:55:00
2:55 PM,52.7,36.5,54,30.27,10.0,ENE,9.2,-,N/A,,Clear,60,2013-03-09 19:55:00
3:55 PM,51.3,34.5,53,30.26,10.0,ENE,6.9,-,N/A,,Clear,70,2013-03-09 20:55:00
4:34 PM,53.6,33.8,47,30.27,10.0,ENE,9.2,-,N/A,Rain,Light Rain,70,2013-03-09 21:34:00
4:37 PM,51.8,33.8,50,30.27,10.0,ENE,9.2,-,N/A,,Clear,70,2013-03-09 21:37:00
4:55 PM,50.4,34.7,55,30.27,8.0,ENE,6.9,-,0.00,,Clear,70,2013-03-09 21:55:00
5:55 PM,44.8,34.2,66,30.28,10.0,ENE,6.9,-,N/A,,Clear,70,2013-03-09 22:55:00
6:55 PM,43.3,35.2,73,30.28,10.0,ENE,5.8,-,N/A,,Clear,60,2013-03-09 23:55:00
7:55 PM,40.5,33.6,77,30.29,10.0,Calm,Calm,-,N/A,,Clear,0,2013-03-10 00:55:00
8:55 PM,39.2,33.1,79,30.30,10.0,Calm,Calm,-,N/A,,Clear,0,2013-03-10 01:55:00
9:55 PM,37.6,32.5,82,30.32,10.0,Calm,Calm,-,N/A,,Clear,0,2013-03-10 02:55:00
10:55 PM,35.8,32.4,87,30.32,10.0,Calm,Calm,-,N/A,,Clear,0,2013-03-10 03:55:00
11:55 PM,35.1,31.8,88,30.31,10.0,Calm,Calm,-,N/A,,Clear,0,2013-03-10 04:55:00